Location: Ch�risy
(50.2331°N, 2.9131°E)
Time: 01:08:02
(UTC+00:00)

ATLAS 5 CENTAUR R/B - Pass Details

Date: 17 January 2021
Orbit: 511 x 1147 km, 63.3° (Epoch: 16 February)

Event Time Altitude Azimuth Distance (km) Brightness Sun altitude
Rises 19:37:42 0° 259° (WSW) 2,721 5.9 -31.4°
Reaches altitude 10° 19:40:00 10° 271° (W) 1,889 4.9 -31.8°
Enters shadow 19:42:31 26° 304° (WNW) 1,228 3.5 -32.2°
